Date String (YYYY-MM-DD hh:mm:ss) UTC,Instrument flags,Ambient pressure (hPa),Sample flow (lpm),Bypass flow (lpm),Sample temperature (°C),Ambient temperature (°C),ASC tube jacket temperature (°C),LED temperature (°C),Box temperature (°C),Sample RH (%),Span deviation,Mass concentration (μg/m³),Mass concentration (μg/m³),Mass concentration (μg/m³)
DateTimeUTC,F1_M11,P_M11,Q1_M11,Q2_M11,T1_M11,T2_M11,T3_M11,T4_M11,T5_M11,U1_M11,ZSPAN_M11,X0_M11,X2_M11,X1_M11
2022-11-12 12:00:00,,0826.6,4.99,0.00,22.3,21.1,00.0,31.1,24.2,09.0,-000.4,0013.33,0006.74,0006.13
2022-11-12 12:01:00,,0826.6,4.99,0.00,22.3,21.0,00.0,31.1,24.1,09.0,-000.2,0012.91,0006.71,0006.09
2022-11-12 12:02:00,,0826.6,5.00,0.00,22.3,20.8,00.0,31.1,24.1,09.0,-000.1,0012.65,0006.70,0006.05
2022-11-12 12:03:00,,0826.6,5.02,0.00,22.3,20.7,00.0,31.1,24.0,09.0,0000.3,0012.71,0006.64,0006.01
2022-11-12 12:04:00,,0826.6,5.00,0.00,22.2,20.6,00.0,31.1,24.0,08.9,0000.1,0012.54,0006.58,0005.97
2022-11-12 12:05:00,,0826.6,4.99,0.00,22.2,20.5,00.0,31.1,24.0,08.9,0000.2,0013.26,0006.57,0005.94
2022-11-12 12:06:00,,0826.6,5.00,0.00,22.2,20.5,00.0,31.1,23.9,08.9,0000.6,0013.39,0006.54,0005.91
2022-11-12 12:07:00,,0826.7,5.02,0.00,22.2,21.1,00.0,31.0,24.1,08.8,0000.3,0013.16,0006.55,0005.89
2022-11-12 12:08:00,,0826.6,4.99,0.00,22.3,22.2,00.0,31.0,24.3,08.8,-000.0,0012.63,0006.50,0005.85
2022-11-12 12:09:00,,0826.6,4.99,0.00,22.4,22.4,00.0,31.1,24.4,08.7,0000.2,0012.61,0006.46,0005.83
2022-11-12 12:10:00,,0826.5,5.01,0.00,22.4,21.9,00.0,31.1,24.3,08.7,0001.0,0012.44,0006.40,0005.80
2022-11-12 12:11:00,,0826.5,4.99,0.00,22.4,21.6,00.0,31.1,24.3,08.7,0000.3,0011.50,0006.33,0005.76
2022-11-12 12:12:00,,0826.5,5.00,0.00,22.4,21.3,00.0,31.1,24.2,08.7,0000.4,0011.51,0006.29,0005.74
2022-11-12 12:13:00,,0826.5,5.00,0.00,22.3,21.1,00.0,31.1,24.2,08.7,0000.6,0011.88,0006.23,0005.71
2022-11-12 12:14:00,,0826.5,5.03,0.00,22.3,20.9,00.0,31.1,24.1,08.7,0000.5,0011.83,0006.26,0005.71
2022-11-12 12:15:00,,0826.5,5.00,0.00,22.3,20.7,00.0,31.1,24.0,08.7,0000.2,0011.77,0006.22,0005.69
2022-11-12 12:16:00,,0826.5,4.99,0.00,22.3,20.7,00.0,31.1,24.0,08.9,0000.4,0011.19,0006.20,0005.68
2022-11-12 12:17:00,,0826.5,4.99,0.00,22.2,20.6,00.0,31.1,24.0,09.0,0001.1,0010.98,0006.28,0005.74
2022-11-12 12:18:00,,0826.5,5.00,0.00,22.2,20.6,00.0,31.1,24.0,09.0,0001.6,0011.17,0006.38,0005.80
2022-11-12 12:19:00,,0826.5,5.02,0.00,22.2,21.4,00.0,31.1,24.1,09.0,0001.3,0011.54,0006.46,0005.86
2022-11-12 12:20:00,,0826.5,4.98,0.00,22.3,22.3,00.0,31.1,24.4,08.9,0001.0,0012.21,0006.49,0005.90
2022-11-12 12:21:00,,0826.5,5.02,0.00,22.4,22.2,00.0,31.1,24.4,08.9,0000.0,0012.60,0006.49,0005.91
2022-11-12 12:22:00,,0826.5,4.99,0.00,22.4,21.9,00.0,31.1,24.3,08.9,0000.0,0012.42,0006.53,0005.95
2022-11-12 12:23:00,,0826.5,5.00,0.00,22.4,21.5,00.0,31.1,24.3,08.9,0000.0,0012.46,0006.55,0005.97
2022-11-12 12:24:00,,0826.5,5.00,0.00,22.4,21.3,00.0,31.2,24.2,08.8,0000.0,0013.29,0006.57,0005.98
2022-11-12 12:25:00,,0826.5,5.02,0.00,22.3,21.0,00.0,31.2,24.1,08.9,-000.6,0013.51,0006.57,0006.00
2022-11-12 12:26:00,,0826.5,4.98,0.00,22.3,20.8,00.0,31.1,24.1,09.0,-000.5,0014.00,0006.67,0006.07
2022-11-12 12:27:00,,0826.5,5.00,0.00,22.3,20.6,00.0,31.1,24.0,09.1,0000.3,0014.42,0006.76,0006.16
2022-11-12 12:28:00,,0826.5,5.01,0.00,22.2,20.3,00.0,31.1,23.9,09.2,0000.2,0016.14,0006.84,0006.24
2022-11-12 12:29:00,,0826.5,5.00,0.00,22.1,20.1,00.0,31.1,23.8,09.3,0000.2,0016.86,0006.86,0006.30
2022-11-12 12:30:00,,0826.6,4.99,0.00,22.1,20.4,00.0,31.1,23.9,09.1,0000.0,0016.79,0006.85,0006.29
2022-11-12 12:31:00,,0826.7,5.00,0.00,22.2,21.4,00.0,31.0,24.1,09.2,-000.4,0016.40,0006.87,0006.31
2022-11-12 12:32:00,,0826.7,4.99,0.00,22.3,22.1,00.0,31.1,24.3,09.3,0000.1,0016.21,0006.98,0006.42
2022-11-12 12:33:00,,0826.7,4.99,0.00,22.3,21.9,00.0,31.1,24.3,09.3,0000.3,0016.53,0007.09,0006.53
2022-11-12 12:34:00,,0826.7,5.02,0.00,22.3,21.5,00.0,31.1,24.2,09.1,0000.6,0016.86,0007.14,0006.55
2022-11-12 12:35:00,,0826.7,5.00,0.00,22.3,21.3,00.0,31.1,24.1,09.1,0001.1,0015.74,0007.18,0006.57
2022-11-12 12:36:00,,0826.7,4.99,0.00,22.3,21.1,00.0,31.1,24.1,09.2,0001.1,0015.37,0007.30,0006.64
2022-11-12 12:37:00,,0826.7,5.00,0.00,22.3,20.9,00.0,31.1,24.1,09.4,0001.2,0016.03,0007.40,0006.74
2022-11-12 12:38:00,,0826.7,5.01,0.00,22.2,20.8,00.0,31.1,24.0,09.5,-000.0,0016.72,0007.57,0006.88
2022-11-12 12:39:00,,0826.7,4.98,0.00,22.2,20.7,00.0,31.1,24.0,09.4,-000.5,0015.53,0007.60,0006.93
2022-11-12 12:40:00,,0826.7,5.00,0.00,22.2,20.6,00.0,31.1,24.0,09.4,-000.6,0015.29,0007.63,0006.95
2022-11-12 12:41:00,,0826.7,5.01,0.00,22.2,20.5,00.0,31.1,23.9,09.4,-000.0,0016.25,0007.76,0007.06
2022-11-12 12:42:00,,0826.7,5.00,0.00,22.2,20.9,00.0,31.0,24.0,09.4,0000.6,0016.51,0007.86,0007.16
2022-11-12 12:43:00,,0826.6,5.00,0.00,22.3,21.9,00.0,31.0,24.2,09.5,0000.6,0017.15,0007.94,0007.20
2022-11-12 12:44:00,,0826.7,4.99,0.00,22.4,22.3,00.0,31.0,24.4,09.4,0000.5,0017.49,0007.98,0007.22
2022-11-12 12:45:00,,0826.6,4.99,0.00,22.4,21.9,00.0,31.1,24.3,09.5,0000.1,0018.23,0008.09,0007.34
2022-11-12 12:46:00,,0826.7,5.01,0.00,22.4,21.5,00.0,31.1,24.3,09.5,-000.4,0018.43,0008.23,0007.50
2022-11-12 12:47:00,,0826.7,5.00,0.00,22.4,21.3,00.0,31.1,24.2,09.5,-000.5,0018.51,0008.31,0007.60
2022-11-12 12:48:00,,0826.7,4.99,0.00,22.3,21.1,00.0,31.1,24.2,09.5,-000.5,0017.66,0008.33,0007.61
2022-11-12 12:49:00,,0826.7,5.02,0.00,22.3,20.9,00.0,31.1,24.1,09.5,-000.3,0016.96,0008.30,0007.57
2022-11-12 12:50:00,,0826.7,5.01,0.00,22.3,20.6,00.0,31.1,24.0,09.5,0000.1,0016.68,0008.33,0007.60
2022-11-12 12:51:00,,0826.7,4.98,0.00,22.2,20.4,00.0,31.1,23.9,09.6,0000.6,0017.07,0008.39,0007.64
2022-11-12 12:52:00,,0826.8,5.00,0.00,22.1,20.3,00.0,31.0,23.9,09.6,0000.4,0016.94,0008.44,0007.69
2022-11-12 12:53:00,,0826.8,5.01,0.00,22.1,20.3,00.0,31.0,23.8,09.5,0000.3,0016.91,0008.43,0007.67
2022-11-12 12:54:00,,0826.8,5.01,0.00,22.2,21.0,00.0,31.0,24.0,09.6,-000.1,0016.22,0008.47,0007.67
2022-11-12 12:55:00,,0827.0,5.00,0.00,22.3,22.0,00.0,31.0,24.2,09.6,0000.1,0015.99,0008.53,0007.71
2022-11-12 12:56:00,,0827.0,4.98,0.00,22.3,22.2,00.0,31.0,24.3,09.6,0000.6,0015.67,0008.64,0007.73
2022-11-12 12:57:00,,0827.0,5.00,0.00,22.3,21.8,00.0,31.1,24.3,09.4,0001.1,0015.97,0008.59,0007.68
2022-11-12 12:58:00,,0827.1,5.01,0.00,22.3,21.5,00.0,31.1,24.2,09.3,0001.1,0016.06,0008.45,0007.57
2022-11-12 12:59:00,,0827.1,5.00,0.00,22.3,21.3,00.0,31.1,24.1,09.2,0001.0,0016.12,0008.34,0007.46
